[[{"header":{"parameterUnit":"m.s-1","parameterCategory":1,"la1":30.2991,"la2":30.254,"lo1":-89.0895,"lo2":-89.0444,"dy":0.0017,"dx":0.0017,"nx":28,"ny":28,"refTime":"2025-02-05T03:00:00:Z","depth":0,"parameterNumber":2,"parameterNumberName":"U-component_of_WINDS"},"data":[0,0,0,0,0,0,0,0,0,0,0,0,0,0,0,0,0,0,0,0,0,0,0,0,0,0,0,0,0,0,0,0,0,0,0,0,0,0,0,0,0,0,0,0,0,0,0,0,0,0,0,0,0,0,0,0,0,0,-1.7911,-1.791,0,-1.7826,-1.7825,-1.7824,-1.7748,-1.7747,-1.7746,-1.7745,-1.7656,-1.7655,-1.7653,0,0,0,0,0,0,0,0,0,0,0,0,0,-1.8006,-1.8004,-1.7911,-1.791,-1.7909,-1.7826,-1.7825,-1.7824,-1.7748,-1.7747,-1.7746,-1.7745,-1.7657,-1.7655,-1.7653,0,0,0,0,0,0,0,0,0,0,0,0,0,-1.7947,-1.8004,-1.7911,-1.7861,-1.7856,-1.7826,-1.7825,-1.7823,-1.7748,-1.7747,-1.7746,-1.7744,-1.7657,-1.7655,-1.7653,-1.7665,0,0,-1.7646,-1.7645,0,0,0,0,0,0,0,0,-1.795,-1.7944,-1.787,-1.7865,-1.7859,-1.7796,-1.7825,-1.777,-1.7749,-1.7789,-1.7745,-1.7744,-1.7704,-1.7697,-1.7684,-1.7661,-1.7657,-1.7645,-1.7644,-1.7643,-1.7642,0,0,0,0,0,0,0,-1.7955,-1.7947,-1.7877,-1.7869,-1.7862,-1.7842,-1.7832,-1.7815,-1.7755,-1.7785,-1.778,-1.7771,-1.77,-1.7687,-1.7682,-1.7656,-1.7646,-1.7643,-1.7642,-1.7641,-1.7637,-1.7638,0,0,0,0,0,0,-1.7967,-1.7951,-1.788,-1.7875,-1.7902,-1.7842,-1.7831,-1.7818,-1.7755,-1.7744,-1.7772,-1.7768,-1.7691,-1.7685,-1.7678,-1.7687,-1.7643,-1.7641,-1.764,-1.7635,-1.7637,-1.7638,0,0,0,0,0,0,-1.7969,-1.7961,-1.7883,-1.7911,-1.79,-1.7841,-1.7827,-1.7817,-1.7803,-1.7745,-1.7733,-1.7769,-1.769,-1.7682,-1.7669,-1.7683,-1.764,-1.7638,-1.7634,-1.7636,-1.7637,-1.7706,0,0,0,0,0,0,-1.7972,-1.7962,-1.7967,-1.7912,-1.7899,-1.7876,-1.7828,-1.7816,-1.7799,-1.7793,-1.7739,-1.7729,-1.7688,-1.7673,-1.7666,-1.7679,-1.7636,-1.7632,-1.7635,-1.7637,-1.7702,-1.771,-1.7717,0,0,0,0,0,-1.7976,-1.799,-1.7968,-1.796,-1.7903,-1.7877,-1.787,-1.7823,-1.7801,-1.7804,-1.7767,-1.7731,-1.7683,-1.7672,-1.7664,-1.7677,-1.7631,-1.7634,-1.7637,-1.7699,-1.7709,-1.7717,0,0,0,0,0,0,-1.8047,-1.7982,-1.7956,-1.7953,-1.7922,-1.7865,-1.7868,-1.7835,-1.7808,-1.7803,-1.7746,-1.7735,-1.7728,-1.7701,-1.769,-1.7684,-1.7652,-1.7654,-1.7702,-1.7711,-1.7718,-1.7724,-1.7634,0,0,0,0,0,-1.8063,-1.8048,-1.7991,-1.7994,-1.7979,-1.7927,-1.7913,-1.788,-1.7845,-1.7831,-1.7792,-1.7759,-1.7736,-1.7722,-1.7698,-1.7699,-1.7685,-1.7703,-1.7711,-1.7717,-1.7718,-1.7715,-1.7722,-1.7648,-1.7648,-1.7647,0,0,-1.8095,-1.8057,-1.8051,-1.8007,-1.7979,-1.7963,-1.7916,-1.7902,-1.7889,-1.7828,-1.7814,-1.7785,-1.7743,-1.7737,-1.7732,-1.7714,-1.7736,-1.7721,-1.7726,-1.7724,-1.7719,-1.7726,-1.7732,-1.7649,-1.7649,-1.7649,0,0,-1.8145,-1.8115,-1.8113,-1.8086,-1.8044,-1.8009,-1.8008,-1.7956,-1.7935,-1.7919,-1.7873,-1.7857,-1.782,-1.7791,-1.7772,-1.7811,-1.7776,-1.7805,-1.7843,-1.784,-1.7846,-1.7851,-1.7863,-1.7869,-1.7807,-1.7807,-1.7808,0,-1.8189,-1.8165,-1.8117,-1.8105,-1.8087,-1.8032,-1.8029,-1.8004,-1.7956,-1.7944,-1.7925,-1.7876,-1.7845,-1.783,-1.784,-1.7827,-1.7823,-1.781,-1.7849,-1.7854,-1.7858,-1.7869,-1.7874,-1.7811,-1.7811,-1.781,-1.781,0,-1.8221,-1.8205,-1.8209,-1.8164,-1.8146,-1.8139,-1.8089,-1.8076,-1.8045,-1.8012,-1.7996,-1.7956,-1.7922,-1.7917,-1.7886,-1.7898,-1.7888,-1.786,-1.7826,-1.7869,-1.7878,-1.7882,-1.7816,-1.7815,-1.7814,-1.7813,0,0,-1.8313,-1.8242,-1.8243,-1.8222,-1.8171,-1.8157,-1.8148,-1.8115,-1.8105,-1.8074,-1.8063,-1.8032,-1.8006,-1.7985,-1.795,-1.7948,-1.798,-1.792,-1.7918,-1.7931,-1.7988,-1.8008,-1.8014,-1.7957,-1.7958,-1.7958,-1.7991,0,-1.8353,-1.8333,-1.8289,-1.8282,-1.8265,-1.8213,-1.8204,-1.8171,-1.814,-1.8121,-1.8086,-1.8065,-1.8032,-1.8019,-1.8015,-1.7977,-1.799,-1.7974,-1.7945,-1.7944,-1.7955,-1.8019,-1.804,-1.8073,-1.7995,-1.7995,-1.7996,0,-1.8397,-1.8369,-1.8361,-1.831,-1.8301,-1.8294,-1.826,-1.8244,-1.8205,-1.8182,-1.8158,-1.8121,-1.8106,-1.8076,-1.8055,-1.8045,-1.803,-1.801,-1.801,-1.8004,-1.7972,-1.8013,-1.8083,-1.8087,-1.8001,-1.8001,-1.8,0,-1.8462,-1.8423,-1.8412,-1.8396,-1.8337,-1.8333,-1.8308,-1.8269,-1.8252,-1.8222,-1.821,-1.8179,-1.8162,-1.8139,-1.8093,-1.8076,-1.8076,-1.8043,-1.8055,-1.8056,-1.8056,-1.8057,-1.8123,-1.805,-1.805,-1.805,-1.805,0,-1.8511,-1.8507,-1.8441,-1.8434,-1.8428,-1.8378,-1.8373,-1.8343,-1.8308,-1.8294,-1.8247,-1.8235,-1.8176,-1.8157,-1.8121,-1.8108,-1.8101,-1.8081,-1.8071,-1.8084,-1.8086,-1.8073,-1.8068,-1.8051,-1.8051,-1.8051,-1.8051,0,-1.8583,-1.8538,-1.8523,-1.8469,-1.8455,-1.8453,-1.8406,-1.8397,-1.8363,-1.8345,-1.8338,-1.8285,-1.8259,-1.8212,-1.8173,-1.8149,-1.8143,-1.8127,-1.8156,-1.8149,-1.8164,-1.8163,-1.8222,-1.8226,-1.8154,-1.8154,-1.8155,0,-1.8616,-1.8612,-1.8557,-1.8544,-1.8521,-1.8502,-1.8484,-1.8434,-1.8418,-1.8373,-1.8369,-1.834,-1.8314,-1.8276,-1.8232,-1.8202,-1.8184,-1.8207,-1.8179,-1.8192,-1.8182,-1.8182,-1.8181,-1.8213,-1.8214,-1.8215,-1.8216,0,-1.8678,-1.8657,-1.8633,-1.8602,-1.8583,-1.8556,-1.8527,-1.8519,-1.8462,-1.8445,-1.8419,-1.8399,-1.8359,-1.833,-1.8294,-1.8267,-1.8231,-1.8225,-1.8226,-1.8238,-1.8254,-1.8244,-1.8171,-1.8224,-1.8223,-1.8222,-1.8222,-1.8221,-1.873,-1.8724,-1.8684,-1.866,-1.8632,-1.8606,-1.8594,-1.8559,-1.8536,-1.85,-1.8472,-1.8447,-1.8408,-1.8355,-1.8331,-1.831,-1.8293,-1.8295,-1.8295,-1.8296,-1.8301,-1.826,-1.8303,-1.8303,-1.8303,-1.8302,-1.8302,0,-1.8789,-1.8761,-1.8739,-1.8699,-1.868,-1.8649,-1.8615,-1.86,-1.8579,-1.8546,-1.8521,-1.849,-1.8462,-1.8417,-1.8385,-1.8377,-1.8359,-1.837,-1.8369,-1.8363,-1.8318,-1.832,-1.8384,-1.8384,-1.8384,-1.8384,-1.8384,-1.8384,-1.8817,-1.8804,-1.8778,-1.875,-1.8722,-1.8698,-1.868,-1.8655,-1.8628,-1.8596,-1.8572,-1.8543,-1.8504,-1.8469,-1.8441,-1.8428,-1.8418,-1.8433,-1.8415,-1.8374,-1.8366,-1.8359,-1.836,-1.8432,-1.8432,-1.8461,-1.8462,-1.8462]},{"header":{"parameterUnit":"m.s-1","parameterCategory":1,"la1":30.2991,"la2":30.254,"lo1":-89.0895,"lo2":-89.0444,"dy":0.0017,"dx":0.0017,"nx":28,"ny":28,"refTime":"2025-02-05T03:00:00:Z","depth":0,"parameterNumber":3,"parameterNumberName":"V-component_of_WINDS"},"data":[0,0,0,0,0,0,0,0,0,0,0,0,0,0,0,0,0,0,0,0,0,0,0,0,0,0,0,0,0,0,0,0,0,0,0,0,0,0,0,0,0,0,0,0,0,0,0,0,0,0,0,0,0,0,0,0,0,0,2.3256,2.3257,0,2.3312,2.3313,2.3313,2.3325,2.3324,2.3324,2.3323,2.3377,2.3379,2.3381,0,0,0,0,0,0,0,0,0,0,0,0,0,2.3157,2.3159,2.3256,2.3257,2.3258,2.3312,2.3313,2.3314,2.3325,2.3324,2.3324,2.3323,2.3377,2.3379,2.3381,0,0,0,0,0,0,0,0,0,0,0,0,0,2.3205,2.3159,2.3256,2.327,2.3272,2.3312,2.3313,2.3314,2.3325,2.3324,2.3324,2.3323,2.3376,2.3379,2.3381,2.3411,0,0,2.339,2.3391,0,0,0,0,0,0,0,0,2.3202,2.3209,2.3267,2.3269,2.3271,2.3311,2.3298,2.3346,2.3325,2.3305,2.3323,2.3323,2.3355,2.336,2.3372,2.3413,2.3415,2.339,2.3391,2.3393,2.3393,0,0,0,0,0,0,0,2.3199,2.3206,2.3278,2.3268,2.327,2.3273,2.3279,2.3307,2.3333,2.3306,2.3307,2.3314,2.3356,2.3369,2.3373,2.3416,2.339,2.3392,2.3394,2.3395,2.3486,2.3487,0,0,0,0,0,0,2.3194,2.3204,2.3276,2.328,2.3235,2.3275,2.3282,2.3299,2.3332,2.3337,2.3314,2.3314,2.3365,2.337,2.3375,2.3413,2.3393,2.3395,2.3397,2.3486,2.3487,2.3487,0,0,0,0,0,0,2.3191,2.32,2.3274,2.3242,2.3252,2.3277,2.3296,2.33,2.3313,2.3339,2.3343,2.3323,2.3364,2.3371,2.3402,2.3415,2.3396,2.3399,2.3485,2.3486,2.3487,2.3489,0,0,0,0,0,0,2.3189,2.3199,2.3211,2.3242,2.3253,2.3302,2.3297,2.3302,2.3318,2.3318,2.3348,2.3352,2.3364,2.3398,2.3405,2.3418,2.3401,2.3484,2.3485,2.3487,2.3488,2.349,2.3492,0,0,0,0,0,2.3185,2.3208,2.3212,2.322,2.3269,2.3302,2.3308,2.3323,2.3319,2.3331,2.3348,2.3351,2.3412,2.3401,2.3409,2.3424,2.3483,2.3485,2.3486,2.3487,2.3489,2.3492,0,0,0,0,0,0,2.3176,2.3212,2.3217,2.3251,2.3274,2.3304,2.332,2.3325,2.3349,2.3348,2.3365,2.3371,2.3402,2.3415,2.3403,2.3454,2.3447,2.3451,2.3445,2.3448,2.3449,2.3446,2.3403,0,0,0,0,0,2.3178,2.3203,2.3233,2.326,2.3272,2.3294,2.3309,2.3319,2.3342,2.3351,2.3371,2.3393,2.3417,2.3433,2.3456,2.3489,2.3496,2.3503,2.3505,2.3507,2.351,2.353,2.3534,2.3493,2.3493,2.3493,0,0,2.3183,2.3206,2.322,2.3259,2.3278,2.3303,2.3302,2.3328,2.3347,2.3355,2.3387,2.3401,2.3427,2.346,2.3475,2.3472,2.3522,2.3509,2.351,2.3512,2.3532,2.3536,2.3539,2.3494,2.3494,2.3494,0,0,2.3204,2.3224,2.325,2.3269,2.3298,2.3313,2.3319,2.3349,2.336,2.3392,2.34,2.3421,2.3463,2.3481,2.3496,2.3526,2.353,2.3533,2.3544,2.3563,2.3567,2.357,2.3582,2.3586,2.3536,2.3536,2.3536,0,2.3206,2.3245,2.3262,2.3289,2.3306,2.3316,2.3343,2.336,2.3395,2.3406,2.3402,2.3456,2.3474,2.3512,2.352,2.3531,2.3539,2.353,2.3565,2.3568,2.3571,2.3583,2.3587,2.3536,2.3536,2.3536,2.3536,0,2.3247,2.3274,2.3291,2.3327,2.3346,2.3372,2.3392,2.3409,2.3417,2.3432,2.3465,2.3487,2.3517,2.3526,2.3533,2.3565,2.3563,2.3562,2.3555,2.3575,2.3587,2.3591,2.3537,2.3536,2.3536,2.3536,0,0,2.3264,2.331,2.3316,2.3333,2.3367,2.3388,2.3414,2.3444,2.346,2.3483,2.3506,2.3542,2.3542,2.3558,2.3568,2.3585,2.3609,2.3582,2.3582,2.3587,2.3648,2.365,2.3655,2.3612,2.3613,2.3613,2.3646,0,2.3291,2.3341,2.3357,2.3399,2.3425,2.3435,2.3459,2.3481,2.3496,2.352,2.3535,2.3561,2.3558,2.3568,2.3585,2.3603,2.3622,2.36,2.3634,2.3635,2.3629,2.3661,2.3663,2.3693,2.3651,2.3652,2.3652,0,2.3329,2.3356,2.3401,2.3433,2.3444,2.3465,2.3495,2.3517,2.3543,2.3553,2.3572,2.3581,2.3609,2.36,2.364,2.3625,2.3639,2.365,2.3651,2.3656,2.3646,2.3668,2.3703,2.3708,2.3659,2.3658,2.3658,0,2.334,2.3386,2.342,2.3434,2.3471,2.3486,2.3502,2.3528,2.3546,2.3571,2.3583,2.361,2.3626,2.3647,2.3663,2.3654,2.3701,2.3693,2.3711,2.371,2.3721,2.372,2.376,2.3728,2.3727,2.3727,2.3727,0,2.3369,2.3396,2.3426,2.3446,2.3477,2.3495,2.3525,2.3541,2.3564,2.3588,2.3598,2.3619,2.3638,2.3663,2.3675,2.3707,2.3713,2.3721,2.3725,2.3722,2.3721,2.3733,2.3732,2.3729,2.3728,2.3728,2.3728,0,2.3387,2.3407,2.3445,2.3478,2.3487,2.3508,2.3537,2.3557,2.3572,2.3602,2.361,2.3634,2.3663,2.3681,2.3717,2.3725,2.3761,2.3762,2.3753,2.3755,2.3772,2.3771,2.3822,2.383,2.3791,2.3791,2.3791,0,2.3405,2.3427,2.3463,2.348,2.3497,2.3525,2.3544,2.3562,2.3581,2.3613,2.363,2.366,2.3685,2.3731,2.3752,2.378,2.3783,2.3799,2.3787,2.3784,2.3785,2.3785,2.3788,2.3801,2.3801,2.3802,2.3802,0,2.3435,2.3445,2.3473,2.3504,2.3527,2.3552,2.3577,2.359,2.3613,2.3634,2.3665,2.3685,2.3723,2.3753,2.3783,2.3799,2.3805,2.3805,2.3811,2.3809,2.3804,2.3809,2.3761,2.3804,2.3804,2.3804,2.3804,2.3804,2.3455,2.3476,2.3505,2.3536,2.3557,2.3581,2.3602,2.3621,2.3648,2.3682,2.3691,2.3724,2.375,2.3791,2.3808,2.3834,2.3831,2.3839,2.3841,2.3844,2.3845,2.3799,2.3839,2.3839,2.3839,2.3839,2.3838,0,2.3488,2.3508,2.3536,2.3572,2.3596,2.3601,2.3629,2.3649,2.3678,2.3703,2.3729,2.3765,2.3794,2.3817,2.3848,2.3864,2.3867,2.3871,2.3871,2.3875,2.3845,2.3838,2.3868,2.3868,2.3868,2.3868,2.3868,2.3868,2.3508,2.3544,2.3557,2.3604,2.3623,2.3657,2.3673,2.3695,2.3715,2.3756,2.3782,2.3797,2.3821,2.3854,2.3881,2.3887,2.3898,2.3902,2.3909,2.388,2.3877,2.3874,2.3867,2.3904,2.3904,2.3938,2.3938,2.3938]}]]